Location: Home
(42.5358°N, 72.7383°W)
Time: 00:57:25
(UTC-05:00)

Vanguard 3 - Pass Details

Date: 30 November 2021
Orbit: 508 x 3260 km, 33.3° (Epoch: 21 January)

Event Time Altitude Azimuth Distance (km) Brightness Sun altitude
Rises 08:25:52 0° 271° (W) 6,811 11.4 11.7°
Reaches altitude 10° 08:31:07 10° 266° (W) 5,467 11.0 12.4°
Maximum altitude 08:45:04 47° 200° (SSW) 2,325 10.0 14.2°
Drops below altitude 10° 08:53:15 10° 130° (SE) 3,276 12.5 15.1°
Sets 08:55:37 0° 123° (ESE) 3,957 12.2 15.4°
